Location: Nordegg
(52.4712°N, 116.0743°W)
Time: 15:16:44
(UTC+00:00)

Envisat - Pass Details

Date: 03 December 2021
Orbit: 764 x 766 km, 98.2° (Epoch: 26 January)

Event Time Altitude Azimuth Distance (km) Brightness Sun altitude
Rises 14:27:00 0° 7° (N) 3,249 6.1 -9.8°
Reaches altitude 10° 14:29:44 10° 353° (N) 2,317 5.2 -9.4°
Maximum altitude 14:33:38 23° 303° (WNW) 1,603 4.1 -8.9°
Drops below altitude 10° 14:37:32 10° 253° (WSW) 2,306 5.1 -8.4°
Sets 14:40:15 0° 239° (WSW) 3,227 5.9 -8.0°
